Flag for Germany Weather past 2 weeks in Wuppertal, North Rhine-Westphalia, Germany

Now
52 °F

Clear.


Feels Like: 50 °F
Forecast: 47 / 60 °F
Wind: 6 mph from Southeast

Location: Duesseldorf

Current Time: Sep 23, 2014 at 11:23:12 PM

Latest Report: Sep 23, 2014 at 10:50 PM


Visibility: 10 mi

Pressure: 30.07 "Hg

Humidity: 77%

Dew point: 45 °F

Location of WuppertalLocation

Historic Weather in Wuppertal — Graph

°F

Wuppertal temperature yesterday

Maximum temperature yesterday: 61 °F (at 3:20 PM)
Minimum temperature yesterday: 50 °F (at 11:20 PM)
Average temperature yesterday: 56 °F

Past Weeks' High & Low Weather Summary

 TemperatureHumidityPressure
High77 °F (Sep 17, 2:20 PM)100% (Sep 9, 8:20 AM)30.24 "Hg (Sep 9, 8:20 AM)
Low45 °F (Sep 23, 4:20 AM)45% (Sep 23, 5:20 PM)29.83 "Hg (Sep 18, 4:50 AM)
Average61 °F78%30.04 "Hg
* Reported Sep 8 10:20 PM — Sep 23 10:20 PM, Wuppertal, Weather by CustomWeather, © 2014

Note: Actual official high and low records may vary slightly from our data, if they occured in-between our weather recording intervals... More about our weather records

Advertising

Wuppertal weather history for previous 24 hours

 ConditionsComfort  
Time TempWeatherWind HumidityBarometerVisibility
10:20 PM
Sep 23
52 °FClear.5 mph82%30.07 "Hg10 mi
9:50 PM52 °FClear.2 mph82%30.07 "Hg10 mi
9:20 PM52 °FClear.5 mph82%30.07 "Hg10 mi
8:50 PM52 °FClear.3 mph77%30.07 "Hg10 mi
8:20 PM52 °FScattered clouds.2 mph77%30.09 "HgN/A
7:50 PM55 °FScattered clouds.1 mph67%30.09 "HgN/A
7:20 PM57 °FScattered clouds.3 mph67%30.09 "HgN/A
6:50 PM61 °FScattered clouds.3 mph55%30.09 "HgN/A
6:20 PM61 °FScattered clouds.1 mph52%30.09 "HgN/A
5:50 PM61 °FPassing clouds.3 mph52%30.09 "HgN/A
5:20 PM63 °FPassing clouds.5 mph45%30.09 "HgN/A
4:50 PM63 °FPassing clouds.7 mph49%30.09 "HgN/A
4:20 PM63 °FPassing clouds.3 mph52%30.12 "HgN/A
3:50 PM61 °FScattered clouds.7 mph52%30.12 "HgN/A
3:20 PM63 °FScattered clouds.5 mph49%30.12 "HgN/A
2:50 PM61 °FScattered clouds.5 mph59%30.15 "HgN/A
2:20 PM61 °FScattered clouds.2 mph52%30.15 "HgN/A
1:50 PM61 °FScattered clouds.6 mph48%30.15 "HgN/A
1:20 PM63 °FPassing clouds.5 mph49%30.15 "HgN/A
12:20 PM59 °FPassing clouds.3 mph63%30.18 "HgN/A
11:50 AM57 °FPassing clouds.5 mph67%30.18 "HgN/A
11:20 AM55 °FScattered clouds.6 mph72%30.18 "HgN/A
10:50 AM55 °FScattered clouds.5 mph72%30.18 "HgN/A
10:20 AM52 °FPartly sunny.5 mph82%30.18 "HgN/A
9:50 AM52 °FPartly sunny.5 mph82%30.18 "HgN/A
9:20 AM50 °FSunny.6 mph88%30.18 "Hg10 mi
8:50 AM50 °FSunny.6 mph88%30.18 "Hg10 mi
8:20 AM50 °FPartly sunny.3 mph88%30.18 "HgN/A
7:50 AM48 °FPassing clouds.5 mph87%30.18 "HgN/A
7:20 AM48 °FPassing clouds.5 mph94%30.18 "HgN/A
6:50 AM46 °FClear.5 mph93%30.18 "Hg10 mi
6:20 AM45 °FClear.3 mph93%30.18 "Hg10 mi
5:50 AM45 °FPassing clouds.1 mph93%30.15 "HgN/A
5:20 AM45 °FFog.6 mph93%30.15 "HgN/A
4:50 AM45 °FFog.3 mph93%30.15 "HgN/A
4:20 AM45 °FFog.2 mph93%30.15 "HgN/A
3:50 AM46 °FPassing clouds.3 mph87%30.18 "HgN/A
3:20 AM46 °FPassing clouds.1 mph93%30.18 "HgN/A
2:50 AM46 °FClear.3 mph87%30.18 "Hg10 mi
2:20 AM46 °FFog.2 mph93%30.18 "HgN/A
1:50 AM46 °FFog.2 mph87%30.18 "HgN/A
1:20 AM46 °FFog.1 mph87%30.18 "HgN/A
12:50 AM48 °FFog.3 mph87%30.18 "HgN/A
12:20 AM48 °FFog.5 mph87%30.18 "HgN/A
11:50 PM
Sep 22
50 °FFog.3 mph82%30.18 "HgN/A
11:20 PM50 °FClear.2 mph82%30.18 "Hg10 mi
Weather by CustomWeather, © 2014

See weather overviewHow to use our weather pages